Regional Weather Roundup
Issued by NWS

Current Version | Previous Version | Text Only | Print | Product List | Glossary Off
Versions: 1 2 3 4 5 6 7 8 9 10 11 12 13 14 15 16 17 18 19 20 21 22 23 24 25 26 27 28 29 30 31 32 33 34 35 36 37 38 39 40 41 42 43 44 45 46 47 48 49 50

000
ASUS42 KFFC 300803
RWRGA
WEATHER ROUNDUP FOR GEORGIA
NATIONAL WEATHER SERVICE PEACHTREE CITY GA
300 AM EST FRI JAN 30 2015

NOTE: "FAIR" INDICATES FEW OR NO CLOUDS BELOW 12,000 FEET WITH NO
SIGNIFICANT WEATHER AND/OR OBSTRUCTIONS TO VISIBILITY.

* = USE WITH CAUTION. THE STATIONS MARKED WITH AN ASTERISK MAY NOT
REPORT WEATHER SUCH AS PRECIPITATION, FOG, OR THUNDER AND ARE NOT
QUALITY CONTROLLED BY NWS.

THE REMARK "TC" DENOTES TEMPERATURE READING IN DEGREES CELSIUS.

GAZ001>058-300900-
NORTH GEORGIA

CITY           SKY/WX    TMP DP  RH WIND       PRES   REMARKS
ATLANTA        CLOUDY    47  36  65 N22G30    30.15R
ATHENS         CLOUDY    50  37  61 NW17G26   30.08R
CHAMBLEE       CLOUDY    43  33  68 NW22G29   30.16R
PEACHTREE CITY CLOUDY    49  38  65 NW18G25   30.16R
ROME           CLOUDY    42  30  62 N16G30    30.25R
WEST ATLANTA   CLOUDY    45  34  65 N13       30.18R
GAINESVILLE    MOCLDY    44  34  67 NW15      30.11R
CARTERSVILLE   CLOUDY    42  29  59 VRB7G21   30.23R


CITY           SKY/WX    TMP DP  RH WIND       PRES   REMARKS
DALTON*        CLOUDY    41  32  70 N13G22    30.25R
MARIETTA       CLOUDY    43  33  68 NW18G29   30.17R
$$

GAZ059>098-102>109-300900-
CENTRAL GEORGIA

CITY           SKY/WX    TMP DP  RH WIND       PRES   REMARKS
AUGUSTA-BUSH   CLOUDY    51  36  56 SW9       30.04F
AUGUSTA-DANIEL CLOUDY    53  38  56 VRB7      30.04F
COLUMBUS       MOCLDY    56  46  69 N15G28    30.14R
MACON          PTCLDY    53  49  86 W9        30.09S
ROBINS AFB     PTCLDY    55  50  83 W7        30.07S


CITY           SKY/WX    TMP DP  RH WIND       PRES   REMARKS
LAGRANGE*      MOCLDY    52  41  66 N15G22    30.18R
SYLVANIA*      CLOUDY    54  41  61 W3        30.08F
MILLEDGEVILLE* PTCLDY    54  50  87 W5        30.07S
$$

GAZ099>101-110>166-300900-
SOUTH GEORGIA

CITY           SKY/WX    TMP DP  RH WIND       PRES   REMARKS
SAVANNAH       CLOUDY    52  38  58 SW6       30.10F
VALDOSTA       MOCLDY    49  48  97 VRB3      30.15F
ALMA           MOCLDY    51  40  65 SW9       30.13F
ST SIMONS      MOCLDY    50  41  71 SW9       30.13F
FT STEWART     CLOUDY    52  37  56 SW6       30.09F
ALBANY         CLOUDY    54  47  77 W5        30.16S
HUNTER AFB     CLOUDY    52  39  62 SW6       30.08F
MOODY AFB      CLOUDY    52  48  86 SW9       30.14F
BRUNSWICK      MOCLDY    52  41  66 SW8       30.13F


CITY           SKY/WX    TMP DP  RH WIND       PRES   REMARKS
BAINBRIDGE*    CLOUDY    59  54  82 SW7       30.15F
MOULTRIE*      MOCLDY    52  46  82 SW3       30.16S
VIDALIA*       CLOUDY    54  43  66 SW9       30.10F
WAYCROSS*      PTCLDY    53  47  81 SW9       30.14F
DOUGLAS*       MOCLDY    54  45  71 SW9       30.15S
$$


USA.gov is the U.S. government's official web portal to all federal, state and local government web resources and services.